Year,Month,Day,Hour,Minute,Value (Times are PST for temperature in C)
2007,10,23,00,00,12.40
2007,10,23,00,01,12.40
2007,10,23,00,02,12.40
2007,10,23,00,03,12.50
2007,10,23,00,04,12.50
2007,10,23,00,05,12.50
2007,10,23,00,06,12.50
2007,10,23,00,07,12.50
2007,10,23,00,08,12.50
2007,10,23,00,09,12.50
2007,10,23,00,10,12.50
2007,10,23,00,11,12.50
2007,10,23,00,12,12.60
2007,10,23,00,13,12.60
2007,10,23,00,14,12.60
2007,10,23,00,15,12.60
2007,10,23,00,16,12.60
2007,10,23,00,17,12.60
2007,10,23,00,18,12.60
2007,10,23,00,19,12.60
2007,10,23,00,20,12.60
2007,10,23,00,21,12.70
2007,10,23,00,22,12.70
2007,10,23,00,23,12.70
2007,10,23,00,24,12.70
2007,10,23,00,25,12.70
2007,10,23,00,26,12.70
2007,10,23,00,27,12.70
2007,10,23,00,28,12.70
2007,10,23,00,29,12.80
2007,10,23,00,30,12.80
2007,10,23,00,31,12.80
2007,10,23,00,32,12.80
2007,10,23,00,33,12.80
2007,10,23,00,34,12.80
2007,10,23,00,35,12.80
2007,10,23,00,36,12.80
2007,10,23,00,37,12.80
2007,10,23,00,38,12.80
2007,10,23,00,39,12.80
2007,10,23,00,40,12.80
2007,10,23,00,41,12.80
2007,10,23,00,42,12.80
2007,10,23,00,43,12.80
2007,10,23,00,44,12.80
2007,10,23,00,45,12.80
2007,10,23,00,46,12.80
2007,10,23,00,47,12.80
2007,10,23,00,48,12.80
2007,10,23,00,49,12.80
2007,10,23,00,50,12.80
2007,10,23,00,51,12.80
2007,10,23,00,52,12.80
2007,10,23,00,53,12.80
2007,10,23,00,54,12.80
2007,10,23,00,55,12.80
2007,10,23,00,56,12.80
2007,10,23,00,57,12.80
2007,10,23,00,58,12.80
2007,10,23,00,59,12.80
2007,10,23,01,00,12.80
2007,10,23,01,01,12.80
2007,10,23,01,02,12.80
2007,10,23,01,03,12.80
2007,10,23,01,04,12.80
2007,10,23,01,05,12.80
2007,10,23,01,06,12.80
2007,10,23,01,07,12.80
2007,10,23,01,08,12.80
2007,10,23,01,09,12.80
2007,10,23,01,10,12.80
2007,10,23,01,11,12.80
2007,10,23,01,12,12.80
2007,10,23,01,13,12.80
2007,10,23,01,14,12.80
2007,10,23,01,15,12.80
2007,10,23,01,16,12.80
2007,10,23,01,17,12.80
2007,10,23,01,18,12.80
2007,10,23,01,19,12.80
2007,10,23,01,20,12.80
2007,10,23,01,21,12.80
2007,10,23,01,22,12.80
2007,10,23,01,23,12.80
2007,10,23,01,24,12.80
2007,10,23,01,25,12.80
2007,10,23,01,26,12.80
2007,10,23,01,27,12.80
2007,10,23,01,28,12.80
2007,10,23,01,29,12.80
2007,10,23,01,30,12.80
2007,10,23,01,31,12.80
2007,10,23,01,32,12.80
2007,10,23,01,33,12.80
2007,10,23,01,34,12.80
2007,10,23,01,35,12.80
2007,10,23,01,36,12.80
2007,10,23,01,37,12.80
2007,10,23,01,38,12.80
2007,10,23,01,39,12.80
2007,10,23,01,40,12.80
2007,10,23,01,41,12.80
2007,10,23,01,42,12.80
2007,10,23,01,43,12.80
2007,10,23,01,44,12.80
2007,10,23,01,45,12.80
2007,10,23,01,46,12.80
2007,10,23,01,47,12.80
2007,10,23,01,48,12.80
2007,10,23,01,49,12.90
2007,10,23,01,50,12.90
2007,10,23,01,51,12.90
2007,10,23,01,52,12.90
2007,10,23,01,53,12.90
2007,10,23,01,54,12.90
2007,10,23,01,55,12.90
2007,10,23,01,56,12.90
2007,10,23,01,57,12.90
2007,10,23,01,58,12.90
2007,10,23,01,59,12.90
2007,10,23,02,00,12.90
2007,10,23,02,01,12.90
2007,10,23,02,02,12.90
2007,10,23,02,03,12.90
2007,10,23,02,04,12.90
2007,10,23,02,05,12.90
2007,10,23,02,06,12.90
2007,10,23,02,07,12.90
2007,10,23,02,08,12.90
2007,10,23,02,09,12.90
2007,10,23,02,10,13.00
2007,10,23,02,11,13.00
2007,10,23,02,12,13.00
2007,10,23,02,13,13.00
2007,10,23,02,14,13.00
2007,10,23,02,15,13.00
2007,10,23,02,16,13.00
2007,10,23,02,17,13.00
2007,10,23,02,18,13.00
2007,10,23,02,19,13.00
2007,10,23,02,20,13.00
2007,10,23,02,21,13.00
2007,10,23,02,22,13.00
2007,10,23,02,23,13.00
2007,10,23,02,24,13.00
2007,10,23,02,25,13.00
2007,10,23,02,26,13.00
2007,10,23,02,27,13.00
2007,10,23,02,28,13.00
2007,10,23,02,29,13.00
2007,10,23,02,30,13.00
2007,10,23,02,31,13.00
2007,10,23,02,32,13.00
2007,10,23,02,33,13.00
2007,10,23,02,34,13.00
2007,10,23,02,35,13.00
2007,10,23,02,36,13.00
2007,10,23,02,37,13.00
2007,10,23,02,38,13.00
2007,10,23,02,39,12.90
2007,10,23,02,40,12.90
2007,10,23,02,41,12.90
2007,10,23,02,42,12.90
2007,10,23,02,43,12.90
2007,10,23,02,44,13.00
2007,10,23,02,45,13.00
2007,10,23,02,46,13.00
2007,10,23,02,47,13.10
2007,10,23,02,48,13.10
2007,10,23,02,49,13.10
2007,10,23,02,50,13.10
2007,10,23,02,51,13.10
2007,10,23,02,52,13.10
2007,10,23,02,53,13.10
2007,10,23,02,54,13.10
2007,10,23,02,55,13.10
2007,10,23,02,56,13.20
2007,10,23,02,57,13.10
2007,10,23,02,58,13.10
2007,10,23,02,59,13.10
2007,10,23,03,00,13.10
2007,10,23,03,01,13.10
2007,10,23,03,02,13.10
2007,10,23,03,03,13.10
2007,10,23,03,04,13.00
2007,10,23,03,05,13.00
2007,10,23,03,06,13.00
2007,10,23,03,07,13.00
2007,10,23,03,08,13.00
2007,10,23,03,09,13.00
2007,10,23,03,10,12.90
2007,10,23,03,11,12.90
2007,10,23,03,12,12.90
2007,10,23,03,13,12.90
2007,10,23,03,14,12.90
2007,10,23,03,15,12.90
2007,10,23,03,16,12.90
2007,10,23,03,17,12.80
2007,10,23,03,18,12.80
2007,10,23,03,19,12.80
2007,10,23,03,20,12.80
2007,10,23,03,21,12.80
2007,10,23,03,22,12.80
2007,10,23,03,23,12.80
2007,10,23,03,24,12.80
2007,10,23,03,25,12.80
2007,10,23,03,26,12.80
2007,10,23,03,27,12.70
2007,10,23,03,28,12.70
2007,10,23,03,29,12.70
2007,10,23,03,30,12.70
2007,10,23,03,31,12.70
2007,10,23,03,32,12.70
2007,10,23,03,33,12.60
2007,10,23,03,34,12.60
2007,10,23,03,35,12.60
2007,10,23,03,36,12.60
2007,10,23,03,37,12.60
2007,10,23,03,38,12.50
2007,10,23,03,39,12.50
2007,10,23,03,40,12.50
2007,10,23,03,41,12.50
2007,10,23,03,42,12.50
2007,10,23,03,43,12.50
2007,10,23,03,44,12.40
2007,10,23,03,45,12.40
2007,10,23,03,46,12.40
2007,10,23,03,47,12.40
2007,10,23,03,48,12.40
2007,10,23,03,49,12.40
2007,10,23,03,50,12.50
2007,10,23,03,51,12.50
2007,10,23,03,52,12.50
2007,10,23,03,53,12.40
2007,10,23,03,54,12.40
2007,10,23,03,55,12.40
2007,10,23,03,56,12.40
2007,10,23,03,57,12.40
2007,10,23,03,58,12.40
2007,10,23,03,59,12.40
2007,10,23,04,00,12.30
2007,10,23,04,01,12.30
2007,10,23,04,02,12.30
2007,10,23,04,03,12.30
2007,10,23,04,04,12.30
2007,10,23,04,05,12.30
2007,10,23,04,06,12.30
2007,10,23,04,07,12.30
2007,10,23,04,08,12.30
2007,10,23,04,09,12.20
2007,10,23,04,10,12.20
2007,10,23,04,11,12.20
2007,10,23,04,12,12.20
2007,10,23,04,13,12.20
2007,10,23,04,14,12.10
2007,10,23,04,15,12.10
2007,10,23,04,16,12.10
2007,10,23,04,17,12.10
2007,10,23,04,18,12.10
2007,10,23,04,19,12.10
2007,10,23,04,20,12.10
2007,10,23,04,21,12.10
2007,10,23,04,22,12.10
2007,10,23,04,23,12.10
2007,10,23,04,24,12.10
2007,10,23,04,25,12.20
2007,10,23,04,26,12.20
2007,10,23,04,27,12.20
2007,10,23,04,28,12.20
2007,10,23,04,29,12.20
2007,10,23,04,30,12.20
2007,10,23,04,31,12.10
2007,10,23,04,32,12.10
2007,10,23,04,33,12.10
2007,10,23,04,34,12.10
2007,10,23,04,35,12.10
2007,10,23,04,36,12.10
2007,10,23,04,37,12.10
2007,10,23,04,38,12.00
2007,10,23,04,39,12.00
2007,10,23,04,40,12.00
2007,10,23,04,41,12.00
2007,10,23,04,42,12.00
2007,10,23,04,43,12.00
2007,10,23,04,44,11.90
2007,10,23,04,45,11.90
2007,10,23,04,46,11.90
2007,10,23,04,47,11.90
2007,10,23,04,48,11.90
2007,10,23,04,49,11.90
2007,10,23,04,50,11.90
2007,10,23,04,51,11.90
2007,10,23,04,52,11.90
2007,10,23,04,53,11.90
2007,10,23,04,54,11.90
2007,10,23,04,55,11.90
2007,10,23,04,56,11.90
2007,10,23,04,57,12.00
2007,10,23,04,58,12.00
2007,10,23,04,59,12.00
2007,10,23,05,00,12.00
2007,10,23,05,01,11.90
2007,10,23,05,02,11.90
2007,10,23,05,03,11.90
2007,10,23,05,04,11.90
2007,10,23,05,05,11.90
2007,10,23,05,06,11.90
2007,10,23,05,07,11.90
2007,10,23,05,08,11.90
2007,10,23,05,09,11.90
2007,10,23,05,10,11.90
2007,10,23,05,11,11.90
2007,10,23,05,12,11.90
2007,10,23,05,13,11.90
2007,10,23,05,14,11.90
2007,10,23,05,15,11.90
2007,10,23,05,16,11.90
2007,10,23,05,17,11.90
2007,10,23,05,18,11.90
2007,10,23,05,19,11.90
2007,10,23,05,20,11.90
2007,10,23,05,21,11.90
2007,10,23,05,22,11.90
2007,10,23,05,23,11.90
2007,10,23,05,24,11.90
2007,10,23,05,25,11.90
2007,10,23,05,26,11.90
2007,10,23,05,27,11.90
2007,10,23,05,28,11.90
2007,10,23,05,29,11.90
2007,10,23,05,30,11.90
2007,10,23,05,31,11.90
2007,10,23,05,32,11.90
2007,10,23,05,33,11.90
2007,10,23,05,34,11.80
2007,10,23,05,35,11.80
2007,10,23,05,36,11.80
2007,10,23,05,37,11.80
2007,10,23,05,38,11.80
2007,10,23,05,39,11.80
2007,10,23,05,40,11.80
2007,10,23,05,41,11.80
2007,10,23,05,42,11.80
2007,10,23,05,43,11.80
2007,10,23,05,44,11.80
2007,10,23,05,45,11.80
2007,10,23,05,46,11.80
2007,10,23,05,47,11.80
2007,10,23,05,48,11.80
2007,10,23,05,49,11.80
2007,10,23,05,50,11.70
2007,10,23,05,51,11.70
2007,10,23,05,52,11.70
2007,10,23,05,53,11.70
2007,10,23,05,54,11.70
2007,10,23,05,55,11.60
2007,10,23,05,56,11.60
2007,10,23,05,57,11.60
2007,10,23,05,58,11.60
2007,10,23,05,59,11.60
2007,10,23,06,00,11.60
2007,10,23,06,01,11.60
2007,10,23,06,02,11.60
2007,10,23,06,03,11.60
2007,10,23,06,04,11.60
2007,10,23,06,05,11.60
2007,10,23,06,06,11.60
2007,10,23,06,07,11.60
2007,10,23,06,08,11.60
2007,10,23,06,09,11.60
2007,10,23,06,10,11.60
2007,10,23,06,11,11.60
2007,10,23,06,12,11.50
2007,10,23,06,13,11.40
2007,10,23,06,14,11.40
2007,10,23,06,15,11.40
2007,10,23,06,16,11.40
2007,10,23,06,17,11.40
2007,10,23,06,18,11.40
2007,10,23,06,19,11.40
2007,10,23,06,20,11.40
2007,10,23,06,21,11.40
2007,10,23,06,22,11.40
2007,10,23,06,23,11.40
2007,10,23,06,24,11.40
2007,10,23,06,25,11.40
2007,10,23,06,26,11.40
2007,10,23,06,27,11.40
2007,10,23,06,28,11.40
2007,10,23,06,29,11.40
2007,10,23,06,30,11.40
2007,10,23,06,31,11.40
2007,10,23,06,32,11.40
2007,10,23,06,33,11.40
2007,10,23,06,34,11.40
2007,10,23,06,35,11.40
2007,10,23,06,36,11.40
2007,10,23,06,37,11.40
2007,10,23,06,38,11.40
2007,10,23,06,39,11.40
2007,10,23,06,40,11.40
2007,10,23,06,41,11.40
2007,10,23,06,42,11.40
2007,10,23,06,43,11.40
2007,10,23,06,44,11.40
2007,10,23,06,45,11.40
2007,10,23,06,46,11.40
2007,10,23,06,47,11.40
2007,10,23,06,48,11.30
2007,10,23,06,49,11.30
2007,10,23,06,50,11.30
2007,10,23,06,51,11.30
2007,10,23,06,52,11.20
2007,10,23,06,53,11.20
2007,10,23,06,54,11.20
2007,10,23,06,55,11.10
2007,10,23,06,56,11.10
2007,10,23,06,57,11.10
2007,10,23,06,58,11.10
2007,10,23,06,59,11.10
2007,10,23,07,00,11.10
2007,10,23,07,01,11.10
2007,10,23,07,02,11.20
2007,10,23,07,03,11.20
2007,10,23,07,04,11.20
2007,10,23,07,05,11.20
2007,10,23,07,06,11.20
2007,10,23,07,07,11.20
2007,10,23,07,08,11.20
2007,10,23,07,09,11.20
2007,10,23,07,10,11.30
2007,10,23,07,11,11.30
2007,10,23,07,12,11.30
2007,10,23,07,13,11.30
2007,10,23,07,14,11.30
2007,10,23,07,15,11.30
2007,10,23,07,16,11.30
2007,10,23,07,17,11.30
2007,10,23,07,18,11.30
2007,10,23,07,19,11.30
2007,10,23,07,20,11.30
2007,10,23,07,21,11.30
2007,10,23,07,22,11.30
2007,10,23,07,23,11.30
2007,10,23,07,24,11.30
2007,10,23,07,25,11.30
2007,10,23,07,26,11.30
2007,10,23,07,27,11.30
2007,10,23,07,28,11.30
2007,10,23,07,29,11.40
2007,10,23,07,30,11.40
2007,10,23,07,31,11.40
2007,10,23,07,32,11.40
2007,10,23,07,33,11.40
2007,10,23,07,34,11.40
2007,10,23,07,35,11.40
2007,10,23,07,36,11.40
2007,10,23,07,37,11.40
2007,10,23,07,38,11.40
2007,10,23,07,39,11.40
2007,10,23,07,40,11.40
2007,10,23,07,41,11.40
2007,10,23,07,42,11.40
2007,10,23,07,43,11.40
2007,10,23,07,44,11.40
2007,10,23,07,45,11.40
2007,10,23,07,46,11.40
2007,10,23,07,47,11.40
2007,10,23,07,48,11.40
2007,10,23,07,49,11.40
2007,10,23,07,50,11.40
2007,10,23,07,51,11.40
2007,10,23,07,52,11.40
2007,10,23,07,53,11.40
2007,10,23,07,54,11.40
2007,10,23,07,55,11.40
2007,10,23,07,56,11.40
2007,10,23,07,57,11.40
2007,10,23,07,58,11.40
2007,10,23,07,59,11.40
2007,10,23,08,00,11.40
2007,10,23,08,01,11.40
2007,10,23,08,02,11.40
2007,10,23,08,03,11.40
2007,10,23,08,04,11.40
2007,10,23,08,05,11.40
2007,10,23,08,06,11.40
2007,10,23,08,07,11.40
2007,10,23,08,08,11.40
2007,10,23,08,09,11.40
2007,10,23,08,10,11.40
2007,10,23,08,11,11.50
2007,10,23,08,12,11.60
2007,10,23,08,13,11.60
2007,10,23,08,14,11.60
2007,10,23,08,15,11.60
2007,10,23,08,16,11.60
2007,10,23,08,17,11.60
2007,10,23,08,18,11.70
2007,10,23,08,19,11.70
2007,10,23,08,20,11.70
2007,10,23,08,21,11.80
2007,10,23,08,22,11.80
2007,10,23,08,23,11.80
2007,10,23,08,24,11.80
2007,10,23,08,25,11.80
2007,10,23,08,26,11.90
2007,10,23,08,27,11.90
2007,10,23,08,28,11.90
2007,10,23,08,29,11.90
2007,10,23,08,30,12.00
2007,10,23,08,31,12.00
2007,10,23,08,32,12.00
2007,10,23,08,33,12.00
2007,10,23,08,34,12.10
2007,10,23,08,35,12.10
2007,10,23,08,36,12.10
2007,10,23,08,37,12.10
2007,10,23,08,38,12.20
2007,10,23,08,39,12.20
2007,10,23,08,40,12.20
2007,10,23,08,41,12.30
2007,10,23,08,42,12.30
2007,10,23,08,43,12.30
2007,10,23,08,44,12.30
2007,10,23,08,45,12.30
2007,10,23,08,46,12.30
2007,10,23,08,47,12.40
2007,10,23,08,48,12.40
2007,10,23,08,49,12.50
2007,10,23,08,50,12.50
2007,10,23,08,51,12.50
2007,10,23,08,52,12.60
2007,10,23,08,53,12.60
2007,10,23,08,54,12.70
2007,10,23,08,55,12.70
2007,10,23,08,56,12.70
2007,10,23,08,57,12.80
2007,10,23,08,58,12.80
2007,10,23,08,59,12.80
2007,10,23,09,00,12.80
2007,10,23,09,01,12.80
2007,10,23,09,02,12.90
2007,10,23,09,03,12.90
2007,10,23,09,04,12.90
2007,10,23,09,05,13.00
2007,10,23,09,06,13.00
2007,10,23,09,07,13.00
2007,10,23,09,08,13.10
2007,10,23,09,09,13.10
2007,10,23,09,10,13.10
2007,10,23,09,11,13.20
2007,10,23,09,12,13.20
2007,10,23,09,13,13.20
2007,10,23,09,14,13.20
2007,10,23,09,15,13.30
2007,10,23,09,16,13.30
2007,10,23,09,17,13.30
2007,10,23,09,18,13.30
2007,10,23,09,19,13.30
2007,10,23,09,20,13.30
2007,10,23,09,21,13.40
2007,10,23,09,22,13.40
2007,10,23,09,23,13.40
2007,10,23,09,24,13.50
2007,10,23,09,25,13.50
2007,10,23,09,26,13.50
2007,10,23,09,27,13.50
2007,10,23,09,28,13.60
2007,10,23,09,29,13.60
2007,10,23,09,30,13.60
2007,10,23,09,31,13.60
2007,10,23,09,32,13.70
2007,10,23,09,33,13.70
2007,10,23,09,34,13.70
2007,10,23,09,35,13.70
2007,10,23,09,36,13.70
2007,10,23,09,37,13.70
2007,10,23,09,38,13.70
2007,10,23,09,39,13.70
2007,10,23,09,40,13.70
2007,10,23,09,41,13.80
2007,10,23,09,42,13.80
2007,10,23,09,43,13.80
2007,10,23,09,44,13.80
2007,10,23,09,45,13.90
2007,10,23,09,46,13.90
2007,10,23,09,47,13.90
2007,10,23,09,48,14.00
2007,10,23,09,49,14.00
2007,10,23,09,50,14.00
2007,10,23,09,51,14.10
2007,10,23,09,52,14.10
2007,10,23,09,53,14.10
2007,10,23,09,54,14.10
2007,10,23,09,55,14.20
2007,10,23,09,56,14.20
2007,10,23,09,57,14.20
2007,10,23,09,58,14.20
2007,10,23,09,59,14.20
2007,10,23,10,00,14.20
2007,10,23,10,01,14.20
2007,10,23,10,02,14.30
2007,10,23,10,03,14.30
2007,10,23,10,04,14.30
2007,10,23,10,05,14.30
2007,10,23,10,06,14.40
2007,10,23,10,07,14.40
2007,10,23,10,08,14.50
2007,10,23,10,09,14.50
2007,10,23,10,10,14.60
2007,10,23,10,11,14.60
2007,10,23,10,12,14.60
2007,10,23,10,13,14.60
2007,10,23,10,14,14.60
2007,10,23,10,15,14.60
2007,10,23,10,16,14.60
2007,10,23,10,17,14.60
2007,10,23,10,18,14.60
2007,10,23,10,19,14.60
2007,10,23,10,20,14.70
2007,10,23,10,21,14.70
2007,10,23,10,22,14.80
2007,10,23,10,23,14.80
2007,10,23,10,24,14.80
2007,10,23,10,25,14.80
2007,10,23,10,26,14.80
2007,10,23,10,27,14.80
2007,10,23,10,28,14.80
2007,10,23,10,29,14.80
2007,10,23,10,30,14.80
2007,10,23,10,31,14.80
2007,10,23,10,32,14.80
2007,10,23,10,33,14.80
2007,10,23,10,34,14.80
2007,10,23,10,35,14.90
2007,10,23,10,36,14.90
2007,10,23,10,37,14.90
2007,10,23,10,38,14.90
2007,10,23,10,39,14.90
2007,10,23,10,40,14.90
2007,10,23,10,41,14.90
2007,10,23,10,42,14.90
2007,10,23,10,43,15.00
2007,10,23,10,44,15.00
2007,10,23,10,45,15.00
2007,10,23,10,46,15.00
2007,10,23,10,47,15.00
2007,10,23,10,48,15.00
2007,10,23,10,49,15.00
2007,10,23,10,50,15.00
2007,10,23,10,51,15.10
2007,10,23,10,52,15.10
2007,10,23,10,53,15.10
2007,10,23,10,54,15.20
2007,10,23,10,55,15.20
2007,10,23,10,56,15.20
2007,10,23,10,57,15.30
2007,10,23,10,58,15.30
2007,10,23,10,59,15.30
2007,10,23,11,00,15.30
2007,10,23,11,01,15.30
2007,10,23,11,02,15.30
2007,10,23,11,03,15.40
2007,10,23,11,04,15.40
2007,10,23,11,05,15.40
2007,10,23,11,06,15.50
2007,10,23,11,07,15.60
2007,10,23,11,08,15.60
2007,10,23,11,09,15.70
2007,10,23,11,10,15.80
2007,10,23,11,11,15.80
2007,10,23,11,12,15.90
2007,10,23,11,13,15.90
2007,10,23,11,14,15.90
2007,10,23,11,15,16.00
2007,10,23,11,16,16.10
2007,10,23,11,17,16.10
2007,10,23,11,18,16.10
2007,10,23,11,19,16.10
2007,10,23,11,20,16.10
2007,10,23,11,21,16.10
2007,10,23,11,22,16.20
2007,10,23,11,23,16.20
2007,10,23,11,24,16.20
2007,10,23,11,25,16.30
2007,10,23,11,26,16.30
2007,10,23,11,27,16.30
2007,10,23,11,28,16.40
2007,10,23,11,29,16.40
2007,10,23,11,30,16.40
2007,10,23,11,31,16.40
2007,10,23,11,32,16.40
2007,10,23,11,33,16.40
2007,10,23,11,34,16.40
2007,10,23,11,35,16.40
2007,10,23,11,36,16.40
2007,10,23,11,37,16.40
2007,10,23,11,38,16.40
2007,10,23,11,39,16.40
2007,10,23,11,40,16.40
2007,10,23,11,41,16.40
2007,10,23,11,42,16.40
2007,10,23,11,43,16.30
2007,10,23,11,44,16.30
2007,10,23,11,45,16.30
2007,10,23,11,46,16.30
2007,10,23,11,47,16.30
2007,10,23,11,48,16.30
2007,10,23,11,49,16.30
2007,10,23,11,50,16.30
2007,10,23,11,51,16.40
2007,10,23,11,52,16.40
2007,10,23,11,53,16.50
2007,10,23,11,54,16.60
2007,10,23,11,55,16.60
2007,10,23,11,56,16.70
2007,10,23,11,57,16.70
2007,10,23,11,58,16.70
2007,10,23,11,59,16.70
2007,10,23,12,00,16.70
2007,10,23,12,01,16.60
2007,10,23,12,02,16.60
2007,10,23,12,03,16.60
2007,10,23,12,04,16.70
2007,10,23,12,05,16.70
2007,10,23,12,06,16.70
2007,10,23,12,07,16.70
2007,10,23,12,08,16.70
2007,10,23,12,09,16.70
2007,10,23,12,10,16.80
2007,10,23,12,11,16.90
2007,10,23,12,12,16.90
2007,10,23,12,13,16.90
2007,10,23,12,14,16.90
2007,10,23,12,15,16.90
2007,10,23,12,16,16.90
2007,10,23,12,17,17.00
2007,10,23,12,18,17.10
2007,10,23,12,19,17.10
2007,10,23,12,20,17.20
2007,10,23,12,21,17.20
2007,10,23,12,22,17.10
2007,10,23,12,23,17.10
2007,10,23,12,24,17.10
2007,10,23,12,25,17.10
2007,10,23,12,26,17.20
2007,10,23,12,27,17.20
2007,10,23,12,28,17.20
2007,10,23,12,29,17.30
2007,10,23,12,30,17.30
2007,10,23,12,31,17.30
2007,10,23,12,32,17.40
2007,10,23,12,33,17.40
2007,10,23,12,34,17.50
2007,10,23,12,35,17.50
2007,10,23,12,36,17.60
2007,10,23,12,37,17.60
2007,10,23,12,38,17.60
2007,10,23,12,39,17.60
2007,10,23,12,40,17.60
2007,10,23,12,41,17.50
2007,10,23,12,42,17.50
2007,10,23,12,43,17.40
2007,10,23,12,44,17.30
2007,10,23,12,45,17.30
2007,10,23,12,46,17.30
2007,10,23,12,47,17.40
2007,10,23,12,48,17.50
2007,10,23,12,49,17.60
2007,10,23,12,50,17.80
2007,10,23,12,51,17.80
2007,10,23,12,52,17.80
2007,10,23,12,53,17.80
2007,10,23,12,54,17.80
2007,10,23,12,55,17.70
2007,10,23,12,56,17.70
2007,10,23,12,57,17.70
2007,10,23,12,58,17.70
2007,10,23,12,59,17.70
2007,10,23,13,00,17.70
2007,10,23,13,01,17.70
2007,10,23,13,02,17.80
2007,10,23,13,03,17.90
2007,10,23,13,04,17.90
2007,10,23,13,05,17.90
2007,10,23,13,06,18.00
2007,10,23,13,07,18.10
2007,10,23,13,08,18.20
2007,10,23,13,09,18.20
2007,10,23,13,10,18.30
2007,10,23,13,11,18.30
2007,10,23,13,12,18.40
2007,10,23,13,13,18.40
2007,10,23,13,14,18.40
2007,10,23,13,15,18.40
2007,10,23,13,16,18.50
2007,10,23,13,17,18.60
2007,10,23,13,18,18.70
2007,10,23,13,19,18.70
2007,10,23,13,20,18.70
2007,10,23,13,21,18.70
2007,10,23,13,22,18.70
2007,10,23,13,23,18.60
2007,10,23,13,24,18.60
2007,10,23,13,25,18.50
2007,10,23,13,26,18.50
2007,10,23,13,27,18.40
2007,10,23,13,28,18.30
2007,10,23,13,29,18.40
2007,10,23,13,30,18.40
2007,10,23,13,31,18.50
2007,10,23,13,32,18.50
2007,10,23,13,33,18.50
2007,10,23,13,34,18.50
2007,10,23,13,35,18.50
2007,10,23,13,36,18.50
2007,10,23,13,37,18.40
2007,10,23,13,38,18.40
2007,10,23,13,39,18.30
2007,10,23,13,40,18.30
2007,10,23,13,41,18.30
2007,10,23,13,42,18.30
2007,10,23,13,43,18.40
2007,10,23,13,44,18.50
2007,10,23,13,45,18.50
2007,10,23,13,46,18.40
2007,10,23,13,47,18.40
2007,10,23,13,48,18.40
2007,10,23,13,49,18.50
2007,10,23,13,50,18.50
2007,10,23,13,51,18.70
2007,10,23,13,52,18.70
2007,10,23,13,53,18.60
2007,10,23,13,54,18.60
2007,10,23,13,55,18.60
2007,10,23,13,56,18.70
2007,10,23,13,57,18.70
2007,10,23,13,58,18.60
2007,10,23,13,59,18.60
2007,10,23,14,00,18.60
2007,10,23,14,01,18.60
2007,10,23,14,02,18.50
2007,10,23,14,03,18.50
2007,10,23,14,04,18.60
2007,10,23,14,05,18.70
2007,10,23,14,06,18.60
2007,10,23,14,07,18.70
2007,10,23,14,08,18.70
2007,10,23,14,09,18.70
2007,10,23,14,10,18.80
2007,10,23,14,11,18.90
2007,10,23,14,12,18.90
2007,10,23,14,13,18.90
2007,10,23,14,14,18.90
2007,10,23,14,15,18.90
2007,10,23,14,16,18.90
2007,10,23,14,17,18.90
2007,10,23,14,18,18.90
2007,10,23,14,19,18.80
2007,10,23,14,20,18.70
2007,10,23,14,21,18.70
2007,10,23,14,22,18.70
2007,10,23,14,23,18.70
2007,10,23,14,24,18.70
2007,10,23,14,25,18.80
2007,10,23,14,26,18.80
2007,10,23,14,27,18.80
2007,10,23,14,28,18.70
2007,10,23,14,29,18.70
2007,10,23,14,30,18.80
2007,10,23,14,31,18.80
2007,10,23,14,32,18.90
2007,10,23,14,33,18.90
2007,10,23,14,34,18.90
2007,10,23,14,35,19.00
2007,10,23,14,36,19.10
2007,10,23,14,37,19.10
2007,10,23,14,38,19.10
2007,10,23,14,39,19.10
2007,10,23,14,40,19.10
2007,10,23,14,41,19.20
2007,10,23,14,42,19.20
2007,10,23,14,43,19.20
2007,10,23,14,44,19.20
2007,10,23,14,45,19.20
2007,10,23,14,46,19.20
2007,10,23,14,47,19.20
2007,10,23,14,48,19.20
2007,10,23,14,49,19.10
2007,10,23,14,50,19.10
2007,10,23,14,51,19.10
2007,10,23,14,52,19.10
2007,10,23,14,53,19.10
2007,10,23,14,54,19.10
2007,10,23,14,55,19.10
2007,10,23,14,56,19.10
2007,10,23,14,57,19.10
2007,10,23,14,58,19.10
2007,10,23,14,59,19.10
2007,10,23,15,00,19.10
2007,10,23,15,01,19.20
2007,10,23,15,02,19.20
2007,10,23,15,03,19.30
2007,10,23,15,04,19.40
2007,10,23,15,05,19.40
2007,10,23,15,06,19.50
2007,10,23,15,07,19.50
2007,10,23,15,08,19.60
2007,10,23,15,09,19.70
2007,10,23,15,10,19.70
2007,10,23,15,11,19.70
2007,10,23,15,12,19.70
2007,10,23,15,13,19.70
2007,10,23,15,14,19.70
2007,10,23,15,15,19.70
2007,10,23,15,16,19.70
2007,10,23,15,17,19.80
2007,10,23,15,18,19.80
2007,10,23,15,19,19.90
2007,10,23,15,20,19.80
2007,10,23,15,21,19.70
2007,10,23,15,22,19.60
2007,10,23,15,23,19.50
2007,10,23,15,24,19.50
2007,10,23,15,25,19.40
2007,10,23,15,26,19.40
2007,10,23,15,27,19.50
2007,10,23,15,28,19.50
2007,10,23,15,29,19.50
2007,10,23,15,30,19.50
2007,10,23,15,31,19.40
2007,10,23,15,32,19.40
2007,10,23,15,33,19.30
2007,10,23,15,34,19.20
2007,10,23,15,35,19.20
2007,10,23,15,36,19.30
2007,10,23,15,37,19.30
2007,10,23,15,38,19.30
2007,10,23,15,39,19.20
2007,10,23,15,40,19.20
2007,10,23,15,41,19.30
2007,10,23,15,42,19.30
2007,10,23,15,43,19.40
2007,10,23,15,44,19.50
2007,10,23,15,45,19.60
2007,10,23,15,46,19.60
2007,10,23,15,47,19.60
2007,10,23,15,48,19.60
2007,10,23,15,49,19.60
2007,10,23,15,50,19.50
2007,10,23,15,51,19.00
2007,10,23,15,52,18.50
2007,10,23,15,53,17.90
2007,10,23,15,54,17.50
2007,10,23,15,55,17.10
2007,10,23,15,56,16.80
2007,10,23,15,57,16.50
2007,10,23,15,58,16.30
2007,10,23,15,59,16.10
2007,10,23,16,00,15.80
2007,10,23,16,01,15.70
2007,10,23,16,02,15.40
2007,10,23,16,03,15.20
2007,10,23,16,04,15.10
2007,10,23,16,05,15.10
2007,10,23,16,06,15.00
2007,10,23,16,07,15.00
2007,10,23,16,08,15.00
2007,10,23,16,09,14.90
2007,10,23,16,10,14.70
2007,10,23,16,11,14.60
2007,10,23,16,12,14.50
2007,10,23,16,13,14.40
2007,10,23,16,14,14.20
2007,10,23,16,15,14.20
2007,10,23,16,16,14.00
2007,10,23,16,17,14.00
2007,10,23,16,18,13.90
2007,10,23,16,19,13.90
2007,10,23,16,20,13.90
2007,10,23,16,21,13.80
2007,10,23,16,22,13.90
2007,10,23,16,23,13.90
2007,10,23,16,24,13.80
2007,10,23,16,25,13.80
2007,10,23,16,26,13.80
2007,10,23,16,27,13.80
2007,10,23,16,28,13.70
2007,10,23,16,29,13.70
2007,10,23,16,30,13.70
2007,10,23,16,31,13.70
2007,10,23,16,32,13.70
2007,10,23,16,33,13.60
2007,10,23,16,34,13.50
2007,10,23,16,35,13.40
2007,10,23,16,36,13.30
2007,10,23,16,37,13.30
2007,10,23,16,38,13.30
2007,10,23,16,39,13.30
2007,10,23,16,40,13.30
2007,10,23,16,41,13.20
2007,10,23,16,42,13.20
2007,10,23,16,43,13.10
2007,10,23,16,44,13.10
2007,10,23,16,45,13.10
2007,10,23,16,46,13.00
2007,10,23,16,47,13.00
2007,10,23,16,48,13.00
2007,10,23,16,49,13.00
2007,10,23,16,50,13.00
2007,10,23,16,51,13.00
2007,10,23,16,52,13.00
2007,10,23,16,53,12.90
2007,10,23,16,54,12.90
2007,10,23,16,55,13.00
2007,10,23,16,56,13.00
2007,10,23,16,57,13.00
2007,10,23,16,58,13.00
2007,10,23,16,59,13.10
2007,10,23,17,00,13.10
2007,10,23,17,01,13.20
2007,10,23,17,02,13.10
2007,10,23,17,03,13.00
2007,10,23,17,04,13.00
2007,10,23,17,05,12.90
2007,10,23,17,06,12.90
2007,10,23,17,07,12.90
2007,10,23,17,08,12.80
2007,10,23,17,09,12.80
2007,10,23,17,10,12.80
2007,10,23,17,11,12.80
2007,10,23,17,12,12.80
2007,10,23,17,13,12.80
2007,10,23,17,14,12.80
2007,10,23,17,15,12.80
2007,10,23,17,16,12.80
2007,10,23,17,17,12.80
2007,10,23,17,18,12.80
2007,10,23,17,19,12.80